GW6731 Weather Reports


time (UTC)temp
C
wind
direction
speed
KPH
gust
KPH
rain 1hr
cm
rain 24hr
cm
rain mn
cm
humidity
%
barometer
mb
20260503013033 15 121 0.0 3.2 0.00 0.00 0.00 43 1016.1
20260503011533 15 0 1.6 6.4 0.00 0.00 0.00 43 1016.2
20260503010037 16 0 0.0 4.8 0.00 0.00 0.00 40 1016.4
20260503004559 16 198 0.0 4.8 0.00 0.00 0.00 39 1016.4
20260503003033 15 184 0.0 1.6 0.00 0.00 0.00 43 1016.5
20260503001532 15 355 1.6 3.2 0.00 0.00 0.00 44 1016.7
20260503000040 15 296 1.6 4.8 0.00 0.00 0.00 42 1016.8
20260502234536 16 271 0.0 1.6 0.00 0.00 0.00 41 1016.7
20260502233034 16 0 0.0 8.0 0.00 0.00 0.00 42 1016.9
20260502231530 17 81 0.0 4.8 0.00 0.00 0.00 38 1017.0
20260502230030 17 175 6.4 11.3 0.00 0.00 0.00 38 1017.2
20260502224533 17 308 1.6 8.0 0.00 0.00 0.00 39 1017.4
20260502223033 16 312 1.6 14.5 0.00 0.00 0.00 41 1017.5
20260502221532 17 283 3.2 12.9 0.00 0.00 0.00 41 1017.7
20260502220035 16 11 1.6 9.7 0.00 0.00 0.00 41 1017.9
20260502214534 16 19 4.8 14.5 0.00 0.00 0.00 44 1018.1
20260502213035 16 323 4.8 17.7 0.00 0.00 0.00 44 1018.3
20260502211538 15 273 4.8 12.9 0.00 0.00 0.00 44 1018.5
20260502210033 15 327 6.4 14.5 0.00 0.00 0.00 45 1018.6
20260502204532 15 271 3.2 8.0 0.00 0.00 0.00 43 1018.8
20260502203033 16 288 4.8 11.3 0.00 0.00 0.00 41 1018.8
20260502201531 15 116 1.6 12.9 0.00 0.00 0.00 44 1018.9
20260502200043 16 286 3.2 20.9 0.00 0.00 0.00 41 1019.1
20260502194534 15 327 4.8 12.9 0.00 0.00 0.00 44 1019.3
20260502193033 15 18 3.2 14.5 0.00 0.00 0.00 45 1019.4
20260502191531 15 15 6.4 17.7 0.00 0.00 0.00 45 1019.6
20260502190035 14 318 9.7 19.3 0.00 0.00 0.00 46 1019.8
20260502184537 13 305 8.0 17.7 0.00 0.00 0.00 48 1019.9
20260502183032 13 291 9.7 17.7 0.00 0.00 0.00 49 1020.0
20260502181534 13 347 8.0 19.3 0.00 0.00 0.00 49 1019.9
20260502163032 13 275 12.9 24.1 0.00 0.00 0.00 50 1019.9
20260502161531 13 317 14.5 22.5 0.00 0.00 0.00 50 1019.9
20260502151540 12 322 9.7 19.3 0.00 0.00 0.00 53 1019.7
20260502123044 10 333 6.4 19.3 0.00 0.00 0.00 51 1018.8
20260502121532 10 336 6.4 17.7 0.00 0.00 0.00 50 1018.7
20260502114534 10 31 19.3 32.2 0.00 0.00 0.00 48 1018.1
20260502113037 10 61 24.1 33.8 0.00 0.00 0.00 47 1017.9
20260502111544 10 47 25.7 41.8 0.00 0.00 0.00 48 1017.5
20260502110032 10 68 19.3 45.1 0.00 0.00 0.00 48 1017.4
20260502104531 10 63 30.6 41.8 0.00 0.00 0.00 48 1017.3
20260502103033 11 54 27.4 38.6 0.00 0.00 0.00 46 1017.2
20260502101534 11 57 27.4 40.2 0.00 0.00 0.00 45 1017.2
20260502091532 10 9 6.4 12.9 0.00 0.00 0.00 43 1016.0
20260502071533 10 0 0.0 8.0 0.00 0.00 0.00 46 1016.2
20260502070037 10 317 4.8 9.7 0.00 0.00 0.00 46 1016.1
20260502064535 9 344 4.8 9.7 0.00 0.00 0.00 46 1016.2
20260502063039 8 321 4.8 11.3 0.00 0.00 0.00 48 1016.1
20260502061530 8 321 4.8 11.3 0.00 0.00 0.00 50 1016.0
20260502060031 8 336 4.8 6.4 0.00 0.00 0.00 51 1016.1
20260502054534 7 321 3.2 4.8 0.00 0.00 0.00 51 1016.1
20260502053030 7 307 3.2 6.4 0.00 0.00 0.00 52 1016.3
20260502051535 7 346 4.8 6.4 0.00 0.00 0.00 52 1016.2
20260502050032 7 22 6.4 8.0 0.00 0.00 0.00 52 1016.1
20260502044529 6 327 0.0 1.6 0.00 0.00 0.00 53 1016.3
20260502043029 7 336 1.6 4.8 0.00 0.00 0.00 48 1016.2
20260502041533 8 0 0.0 4.8 0.00 0.00 0.00 46 1016.1
20260502040034 9 337 3.2 8.0 0.00 0.00 0.00 44 1016.1
20260502034530 10 336 3.2 6.4 0.00 0.00 0.00 41 1015.9
20260502033032 11 195 0.0 3.2 0.00 0.00 0.00 39 1015.6
20260502031530 10 161 0.0 1.6 0.00 0.00 0.00 39 1015.3
20260502030032 11 0 0.0 0.0 0.00 0.00 0.00 36 1015.4
20260502024533 12 0 0.0 1.6 0.00 0.00 0.00 34 1015.2
20260502023034 14 274 0.0 3.2 0.00 0.00 0.00 30 1015.1
20260502021533 15 247 0.0 1.6 0.00 0.00 0.00 27 1015.1
20260502020030 17 245 1.6 4.8 0.00 0.00 0.00 23 1015.0
20260502014532 17 250 1.6 6.4 0.00 0.00 0.00 22 1014.8